Hourly Data Report for November 05, 2020

VICTORIA UNIVERSITY CS
BRITISH COLUMBIA
Current Station Operator: ECCC - MSC

48°27'25.200" N
123°18'16.600" W
60.10 m
1018598
71783
WYJ

Download Data

Hourly Data (November 2020)
Hourly Data Report for November 5, 2020
TIME
LST
Temp Definition
°C
Dew Point Definition
°C
Rel Hum Definition
%
Precip. Amount Definition
mm

Wind Dir Definition
10's deg

Wind Spd Definition
km/h
Visibility Definition
km
Stn Press Definition
kPa
Hmdx Definition


Wind Chill Definition


Weather Definition


00:00 14.1 10.7 80 0.0 24 14   100.68     LegendNANA
01:00 11.6 10.9 96 2.2 24 10   100.90     LegendNANA
02:00 11.7 11.2 97 0.7 26 12   100.84     LegendNANA
03:00 12.2 10.2 88 0.0 24 9   100.87     LegendNANA
04:00 12.6 9.0 79 0.0 25 15   100.92     LegendNANA
05:00 10.5 9.8 96 1.6 25 13   100.97     LegendNANA
06:00 10.1 8.5 90 0.2 26 10   101.04     LegendNANA
07:00 9.5 9.1 98 0.0 23 7   101.07     LegendNANA
08:00 9.8 9.2 97 0.0 24 6   101.15     LegendNANA
09:00 10.3 9.4 94 0.0 23 7   101.18     LegendNANA
10:00 10.6 9.0 90 0.0 22 4   101.20     LegendNANA
11:00 10.4 8.4 87 0.0 22 7   101.17     LegendNANA
12:00 10.5 8.5 88 0.0 23 6   101.12     LegendNANA
13:00 10.7 8.3 85 0.0 22 5   101.01     LegendNANA
14:00 10.9 7.9 82 0.0 18 4   100.98     LegendNANA
15:00 10.8 7.9 82 0.0 0 1   100.92     LegendNANA
16:00 9.7 8.4 92 0.0 33 2   100.79     LegendNANA
17:00 8.2 7.8 98 0.0 29 2   100.79     LegendNANA
18:00 7.8 7.6 99 0.2 13 2   100.73     LegendNANA
19:00 7.9 7.9 100 0.0 2 5   100.68     LegendNANA
20:00 7.5 7.4 99 0.0 35 2   100.65     LegendNANA
21:00 8.1 8.0 99 0.0 36 5   100.62     LegendNANA
22:00 8.1 7.9 99 0.0 36 5   100.64     LegendNANA
23:00 8.1 5.5 84 0.0 36 9   100.64     LegendNANA

Notes on Data Quality.

Legend

  • E = Estimated
  • M = Missing
  • NA = Not Available*
  • [empty] = Indicates an unobserved value
Date modified: